Theta_e
294 294 294 295 295 295 295 295 295 294 294 294 294 294 295 296 296 298 300 301 301 301 302 304 305 305 306 307 309 309 312 315 318 320 320 320 320 320 320 321 322 322 322 320 319 316 313 314 312 313 315 315
293 294 294 294 294 293 293 294 294 293 291 290 292 292 292 293 294 294 294 296 298 299 299 300 301 302 302 303 305 306 308 309 311 314 317 319 319 319 320 321 321 322 322 320 319 317 313 313 313 312 314 315
290 292 293 293 293 293 293 293 293 293 291 289 289 290 290 291 292 293 292 293 295 296 297 298 298 298 299 299 301 302 304 305 306 309 311 314 316 317 318 320 321 321 321 321 319 318 315 313 313 312 313 315
289 290 291 291 292 293 292 292 293 292 291 290 289 289 290 289 290 291 291 292 292 292 294 296 297 297 296 296 298 298 299 301 303 305 306 308 311 315 316 317 320 320 320 321 319 318 316 314 313 311 311 313
288 289 289 289 290 291 291 291 291 291 291 290 290 290 290 290 290 289 289 289 290 291 291 292 294 296 297 296 296 295 295 297 300 302 302 302 305 311 315 315 317 318 319 320 319 319 318 315 313 311 310 312
288 288 288 288 288 289 289 290 291 290 290 290 290 290 290 290 290 290 290 289 289 289 289 289 290 292 294 296 297 296 295 294 296 299 299 298 300 305 311 315 316 317 317 319 319 318 318 316 313 313 311 311
287 287 287 287 287 288 288 289 290 290 290 290 290 290 290 289 289 290 290 290 289 289 289 289 289 290 291 293 295 297 296 294 294 294 294 296 297 299 305 310 314 317 316 317 319 317 318 316 313 314 311 311
286 286 286 287 287 287 288 288 288 289 289 290 290 290 290 289 289 289 290 289 289 289 289 289 289 289 290 291 292 294 295 295 295 293 292 293 295 296 299 302 307 313 316 316 318 317 317 316 314 314 311 311
286 285 285 285 286 286 287 287 287 287 288 289 290 290 290 290 289 289 289 289 289 289 289 289 289 289 290 290 290 291 292 292 294 294 291 291 293 294 295 297 299 306 312 315 317 317 316 315 314 313 311 311
285 285 285 285 285 285 286 287 286 286 288 288 289 290 290 290 289 289 289 289 289 289 289 289 289 288 289 290 290 290 291 291 291 292 291 289 290 291 293 294 295 298 305 311 314 315 315 315 314 313 311 311
284 284 284 284 284 284 285 285 284 285 287 288 289 289 290 290 289 289 289 289 289 289 289 289 289 289 289 289 290 290 291 291 291 290 290 290 289 290 292 293 295 295 297 303 309 313 314 314 313 311 310 311
283 283 283 283 283 283 285 284 283 285 286 287 288 289 290 289 289 289 289 288 288 288 289 289 288 288 289 289 289 290 291 291 291 290 289 290 289 289 290 291 295 296 293 296 303 309 313 313 311 309 309 310
283 282 282 283 282 283 284 283 283 284 284 285 287 288 289 289 289 288 288 288 288 288 288 288 288 288 289 289 289 289 291 291 291 291 289 289 289 288 288 289 293 295 292 292 296 302 308 311 310 310 310 308
282 282 282 282 282 282 283 282 282 283 284 284 285 287 288 288 288 287 288 288 288 288 288 288 287 288 288 289 289 289 290 291 291 291 290 289 290 289 288 288 291 293 293 292 294 296 301 306 309 309 308 307
282 282 282 282 281 281 282 282 281 282 283 284 284 285 286 286 286 287 287 287 287 287 287 287 287 287 288 288 289 289 289 290 291 291 290 291 291 290 289 289 289 290 292 293 296 297 297 300 305 307 306 305
282 282 282 281 281 281 281 281 281 281 282 283 283 283 284 284 285 285 286 286 286 286 286 286 287 287 287 287 288 289 289 289 290 290 290 291 291 291 291 290 289 289 290 292 295 297 298 297 298 303 306 305
282 282 281 281 281 281 281 281 281 281 281 282 281 281 282 283 283 284 284 284 284 284 284 285 286 287 286 287 287 288 288 289 289 289 290 291 291 291 291 291 291 290 289 290 291 295 298 297 295 296 302 305
282 282 281 281 281 281 281 281 281 281 281 281 280 280 281 281 281 282 282 282 282 283 283 284 285 286 286 286 287 287 288 288 288 288 289 290 291 291 291 291 291 291 290 289 289 292 294 294 294 293 294 300
282 282 282 281 281 281 281 281 281 281 281 281 280 280 280 280 280 281 280 280 280 281 282 283 283 285 286 286 286 286 287 287 288 288 288 289 290 291 291 292 292 291 291 290 289 289 290 290 292 293 292 292
282 282 281 281 281 281 281 281 281 281 281 281 280 280 280 280 280 280 280 279 279 280 281 282 282 283 284 285 286 286 286 286 287 288 288 289 289 290 291 292 292 292 291 291 291 290 289 289 289 291 292 291
282 282 281 281 281 281 281 281 281 281 281 281 280 280 280 280 280 280 280 279 279 280 280 281 281 282 283 284 285 285 286 286 286 287 288 288 288 289 290 291 292 292 292 291 291 291 290 290 289 289 291 292
282 282 282 282 281 281 281 281 281 281 281 281 280 280 280 279 280 280 279 279 280 280 280 280 281 281 282 283 284 285 285 285 286 286 287 287 287 288 289 290 291 291 292 292 291 291 291 291 290 289 290 290
282 282 282 282 282 281 281 281 281 281 281 280 280 280 280 280 280 279 279 279 280 280 279 280 280 281 281 282 282 283 284 284 285 285 286 287 287 288 288 289 290 291 291 291 291 291 291 291 291 290 290 290
281 281 281 282 282 281 281 281 281 281 280 280 280 280 280 280 279 279 279 279 279 279 279 279 280 280 280 280 280 281 282 283 284 284 285 286 287 287 288 288 289 290 291 291 291 291 291 291 291 291 290 290
280 280 281 281 281 281 281 281 280 280 280 280 280 280 280 279 279 279 279 279 279 279 279 279 279 279 279 278 279 279 279 281 282 283 284 285 286 287 287 288 288 289 290 290 291 291 291 291 291 291 291 291
280 280 280 280 280 281 281 280 280 280 280 280 280 279 279 279 279 279 279 279 279 278 278 278 278 278 278 278 278 278 278 279 280 281 282 284 285 286 286 287 287 288 289 290 290 290 291 291 291 291 292 291
278 278 279 279 279 280 280 280 280 280 279 279 279 279 279 279 279 279 278 278 278 278 278 278 277 277 277 277 277 277 277 278 279 280 281 282 283 284 286 286 287 287 288 289 290 290 290 291 291 292 292 292
277 277 277 278 278 278 278 278 278 279 278 278 278 278 278 278 278 278 277 277 277 277 277 277 277 277 277 277 277 277 277 278 279 279 280 281 282 284 285 286 286 287 288 288 289 290 290 291 291 292 292 292
275 275 275 276 276 277 277 277 277 277 277 277 277 277 277 277 277 277 277 276 276 276 276 276 276 277 276 276 276 277 277 278 279 279 279 280 281 283 284 285 286 287 287 288 289 289 290 290 291 292 291 291
273 274 274 274 275 276 276 276 276 277 277 276 276 276 276 276 276 276 276 276 276 276 276 276 276 276 276 276 277 277 277 278 278 279 279 280 280 282 283 285 286 286 287 287 288 288 289 290 291 291 290 291
273 273 273 273 274 274 275 275 275 275 275 275 275 275 275 275 275 275 275 275 275 275 275 276 276 276 276 277 277 277 277 278 278 278 278 279 280 281 282 284 285 286 286 287 287 287 288 289 290 289 289 290
Wind_Speed
27 28 28 28 28 28 28 27 27 26 25 22 22 22 20 19 20 19 16 15 16 18 19 19 23 26 27 23 19 22 22 17 10 5 1 3 4 7 9 9 10 11 13 15 14 12 11 9 8 9 10 9
26 26 27 27 26 27 28 27 26 26 26 24 22 21 21 20 20 21 21 19 17 16 18 18 19 22 26 25 21 19 19 20 19 15 9 1 2 2 6 8 8 10 13 15 16 14 11 10 9 10 10 10
27 26 26 26 25 26 27 26 25 25 25 25 24 22 22 21 19 19 22 22 21 20 17 17 18 19 22 24 24 22 18 19 20 18 15 7 1 1 3 7 7 8 11 15 17 15 11 10 10 11 11 10
28 26 26 27 25 24 26 26 24 25 25 26 25 24 23 23 21 20 21 21 21 22 20 19 18 18 19 23 24 24 23 23 19 16 16 13 6 2 2 4 6 8 9 14 17 15 13 12 11 12 11 11
27 26 26 27 26 24 25 25 24 25 25 27 26 25 25 24 24 22 22 23 21 21 22 21 20 19 18 20 22 23 24 23 21 20 16 13 11 6 3 2 3 5 8 13 16 16 15 14 13 13 12 10
26 26 26 28 27 24 25 25 24 25 25 26 26 25 25 24 25 25 23 24 23 21 22 21 21 20 19 19 20 20 23 23 22 22 19 15 12 9 5 3 4 1 5 10 15 18 17 15 15 13 12 10
25 25 25 27 27 25 25 25 24 25 24 24 24 23 24 23 23 23 23 24 24 22 21 21 20 19 19 19 19 19 21 22 22 21 20 18 14 12 8 6 4 3 2 6 13 19 19 17 17 14 13 12
24 24 24 25 25 24 24 25 24 23 23 22 22 22 22 23 23 21 21 23 24 24 22 21 21 20 19 19 18 19 20 21 21 20 20 18 17 16 12 10 8 3 2 2 9 18 19 17 18 16 15 14
23 23 23 24 24 22 23 23 23 23 22 21 20 21 21 22 22 21 20 21 22 23 23 22 23 23 21 20 20 19 20 20 21 21 21 19 17 17 16 14 12 7 3 2 6 17 18 17 18 16 16 15
21 22 22 23 22 21 21 21 22 22 21 21 20 20 20 21 22 21 20 21 21 21 22 22 23 23 22 22 23 22 19 18 19 20 20 19 17 16 16 16 15 12 7 3 3 14 17 14 13 14 16 16
20 22 21 22 21 20 19 19 21 21 20 20 19 19 18 20 22 21 20 21 21 21 21 21 22 23 21 20 22 23 20 18 18 18 18 19 18 16 14 15 15 14 11 7 2 8 14 11 9 12 14 15
20 21 21 20 21 19 17 18 20 18 18 18 17 17 17 19 20 20 20 21 21 21 21 21 21 22 20 19 20 21 20 19 18 18 18 19 18 16 14 13 14 14 13 10 8 2 8 10 10 12 11 13
21 21 21 20 20 18 16 18 19 16 16 16 15 16 17 17 18 19 20 20 20 20 20 21 21 21 20 20 20 19 18 18 19 20 20 20 17 16 16 14 13 15 14 11 10 7 4 7 10 11 9 10
20 20 20 19 19 17 15 17 18 15 14 14 14 15 16 16 16 18 18 19 19 20 20 21 21 20 20 19 19 18 17 17 18 19 21 20 16 15 17 16 13 14 14 11 9 10 9 7 8 9 8 9
19 19 18 18 18 16 15 17 17 15 14 13 14 13 14 15 15 16 16 17 18 19 20 21 21 20 20 19 18 17 17 17 17 18 20 18 16 16 17 16 16 14 13 10 8 10 11 10 10 10 10 11
18 18 17 17 17 16 16 16 16 16 14 13 13 12 13 13 14 14 15 16 17 18 20 20 21 20 20 19 18 17 17 16 16 17 18 16 15 17 16 16 16 15 14 11 7 9 11 12 12 12 12 13
17 17 16 16 16 16 16 16 15 16 14 13 14 12 12 12 13 13 14 16 17 18 19 20 20 20 19 19 18 18 18 17 16 16 17 16 15 16 17 16 16 16 17 14 10 9 10 11 13 13 14 14
17 17 15 16 16 16 17 16 15 16 14 13 14 13 13 12 12 13 14 17 18 18 18 19 20 20 19 19 19 19 19 18 17 17 17 17 17 17 16 17 17 18 18 16 13 13 12 11 12 14 15 15
18 17 15 15 16 17 17 16 15 15 14 13 13 14 15 13 12 13 16 18 18 18 18 19 19 20 19 19 20 20 19 19 18 17 17 17 18 18 17 16 17 18 17 16 16 16 16 14 13 14 16 16
18 16 15 15 16 16 16 16 16 15 14 13 13 14 15 14 14 15 17 19 19 17 17 17 18 20 20 20 20 20 20 20 19 17 17 17 18 19 18 17 17 17 16 17 18 17 18 17 14 14 16 17
18 16 17 16 15 15 15 14 15 15 15 14 13 14 15 15 15 16 19 20 19 17 16 17 18 19 20 20 21 21 20 20 20 19 19 19 19 19 19 18 17 17 17 17 18 17 16 16 15 15 16 17
19 19 20 18 15 15 14 14 15 15 14 14 14 15 16 14 15 16 20 20 17 16 17 17 18 18 19 20 22 22 21 20 20 20 20 20 20 20 20 20 19 18 17 17 17 16 15 15 16 16 17 18
23 22 22 20 18 18 17 16 15 13 13 15 17 16 15 15 16 18 19 18 16 17 18 18 18 18 18 19 22 23 22 22 21 20 20 21 21 20 21 21 21 20 19 19 18 17 17 18 19 19 18 19
26 25 25 25 22 19 19 19 17 17 16 18 19 17 16 18 19 20 18 16 16 17 19 19 18 17 18 20 22 23 24 24 23 23 22 22 22 22 22 21 21 20 20 21 22 22 22 21 20 21 21 21
26 25 25 26 23 19 17 18 18 19 19 19 20 19 19 20 21 20 19 17 16 18 19 19 18 19 21 22 23 24 25 26 26 26 25 24 23 23 22 22 21 19 20 20 19 18 20 22 23 22 22 22
24 24 25 27 25 19 17 17 18 19 20 19 20 21 21 22 22 21 20 19 18 19 20 20 20 22 24 23 24 25 26 27 27 28 27 26 26 24 22 22 22 20 19 18 15 12 12 15 19 20 21 22
25 25 25 26 24 21 19 18 18 18 19 19 20 21 21 22 23 23 23 22 21 21 21 22 23 24 26 26 26 27 28 28 27 27 28 28 28 26 23 23 23 21 20 19 17 13 8 6 8 10 14 20
26 26 26 25 24 22 20 19 19 18 19 20 20 21 22 22 23 24 25 25 24 24 24 24 25 25 25 26 27 28 29 27 26 26 27 28 28 27 24 22 22 22 22 23 18 9 4 4 5 4 6 10
27 27 27 27 26 23 21 20 20 20 20 20 21 22 22 23 23 25 26 26 27 28 28 26 26 26 25 26 28 27 26 26 26 26 27 28 29 28 25 21 21 21 22 24 22 14 8 4 3 4 4 4
29 28 28 27 26 23 21 20 19 19 20 21 22 23 24 26 26 26 27 27 27 27 26 25 25 26 24 23 23 22 22 23 24 26 27 28 29 30 28 25 22 21 23 24 25 23 20 15 10 6 4 3
28 27 26 26 25 23 20 20 19 20 21 21 22 23 24 25 25 25 26 26 26 26 26 25 24 26 24 21 21 21 20 21 23 25 26 28 30 30 30 28 24 22 22 23 25 25 24 24 24 18 8 3
Wind_Direction
22 22 22 23 24 26 28 29 32 34 35 38 42 40 37 34 31 25 17 15 20 24 27 33 32 28 24 24 32 31 33 38 44 66 122 225 244 241 235 226 219 222 211 195 192 193 178 162 152 150 148 142
20 19 19 19 19 21 23 24 26 29 31 34 38 40 39 38 37 34 30 24 18 17 19 24 27 25 22 20 24 22 29 37 35 41 48 131 197 238 225 219 214 215 207 199 200 199 187 171 159 156 158 155
19 18 16 16 15 17 18 19 19 21 23 27 32 34 34 34 34 33 33 32 28 22 14 18 24 25 22 19 19 16 20 23 23 38 40 36 130 165 196 205 205 210 206 204 203 200 198 184 170 166 167 163
19 17 15 14 13 13 14 14 16 15 14 16 23 26 25 26 28 30 29 29 30 28 21 17 16 16 22 20 17 17 18 15 13 28 32 31 44 86 160 192 204 215 210 206 204 201 206 197 183 178 175 172
16 16 14 13 13 14 10 10 12 11 10 10 14 16 16 15 17 22 24 23 25 27 25 21 14 7 9 11 12 14 18 20 13 9 14 26 36 50 94 135 172 223 220 208 206 204 208 202 196 189 181 177
14 14 13 12 13 14 9 9 8 6 7 7 7 9 12 11 7 10 12 15 19 22 22 20 18 11 4 359 359 2 7 16 16 6 2 9 23 38 60 94 114 175 236 219 211 207 208 205 204 199 189 181
13 12 12 10 11 13 8 10 7 2 5 4 4 3 8 12 6 5 4 4 8 14 17 16 16 13 11 5 356 351 351 1 9 7 6 6 8 13 26 50 83 119 211 236 223 212 207 205 208 208 199 185
12 10 10 8 10 11 6 8 7 1 1 1 1 359 0 7 8 6 1 360 1 5 7 7 8 6 9 11 4 354 346 351 356 358 7 12 9 2 1 15 26 66 118 234 229 212 206 207 211 213 206 193
9 7 8 7 8 8 3 4 2 359 360 358 358 357 355 358 4 4 0 360 358 359 0 359 2 1 360 2 3 358 351 353 351 348 359 9 10 4 355 353 357 7 53 89 209 204 204 211 215 218 212 203
5 5 4 5 6 4 2 1 358 358 360 358 355 354 353 354 359 359 357 358 356 354 356 355 355 356 355 355 356 355 352 354 354 350 353 358 2 2 356 347 343 345 349 11 190 196 198 205 215 228 225 214
3 3 1 360 1 2 0 355 355 359 359 356 354 352 350 352 357 357 353 353 353 351 350 352 351 350 351 351 350 349 349 349 352 354 350 350 353 355 354 346 339 334 330 333 332 192 196 199 207 227 234 226
359 358 357 355 355 358 356 350 354 359 356 351 350 352 350 351 355 353 351 349 348 347 346 347 346 345 346 346 345 343 344 344 342 347 350 348 348 348 344 340 336 327 322 321 322 255 199 201 207 222 236 235
352 350 351 351 351 353 349 345 353 357 352 349 348 349 347 349 351 348 347 345 344 343 342 342 342 343 341 340 341 340 337 335 335 339 345 346 344 343 336 330 329 322 319 316 312 305 253 214 210 219 234 236
343 343 344 346 346 348 341 339 349 352 349 349 346 344 343 344 345 344 344 341 341 341 339 338 338 338 337 335 336 338 335 330 333 335 336 339 339 338 335 326 318 314 316 318 313 305 289 262 233 221 218 221
335 336 337 339 340 341 335 334 343 346 346 345 342 341 342 343 341 341 343 341 340 339 337 336 335 333 332 331 331 332 331 327 327 327 327 330 330 328 329 324 315 309 310 315 319 312 293 275 261 243 225 212
328 328 330 331 332 333 330 328 334 339 341 335 334 338 340 343 342 341 341 340 338 337 335 332 329 329 328 327 327 327 325 321 319 319 319 318 319 319 318 316 314 311 306 301 303 307 293 279 270 258 245 228
320 318 320 323 324 324 323 322 322 330 334 328 328 334 336 339 341 341 340 337 336 334 332 328 325 324 324 323 322 323 322 320 317 316 316 310 309 311 308 303 305 308 305 300 291 283 278 281 280 269 259 250
313 310 309 314 317 316 316 315 314 320 322 323 330 332 331 334 336 337 336 336 336 332 328 325 322 320 319 318 317 318 320 318 315 313 312 307 302 300 295 291 295 302 304 302 292 280 275 279 282 276 268 262
307 304 302 306 311 311 310 309 308 312 313 315 325 328 329 330 328 327 330 335 334 326 323 321 319 317 315 314 313 314 315 314 310 307 305 301 299 295 288 282 288 295 300 299 294 287 282 278 277 277 274 267
299 298 298 299 304 306 305 306 305 305 305 305 312 319 324 323 322 324 327 332 329 320 318 318 315 313 311 311 311 309 309 309 306 303 300 297 296 295 290 282 283 286 287 290 293 293 286 279 275 275 277 272
290 288 285 283 294 299 295 301 305 305 305 302 306 314 316 316 317 321 325 326 325 319 316 315 312 310 308 308 310 308 304 303 302 300 298 295 292 292 292 286 282 281 278 281 287 289 286 283 277 271 274 277
303 298 289 278 287 292 284 292 296 296 303 304 309 313 311 312 314 319 323 322 320 320 318 314 311 309 308 307 309 310 307 302 300 298 297 294 290 288 290 289 286 283 280 281 282 280 280 282 281 276 272 273
325 321 312 301 300 298 294 298 297 296 302 305 306 306 308 315 319 320 319 318 318 319 319 316 312 310 309 308 310 312 309 305 302 297 293 291 290 287 284 283 283 282 281 282 281 278 278 280 282 280 276 271
333 329 322 313 306 303 303 304 306 309 309 306 303 301 308 313 313 311 307 307 310 315 318 315 313 315 315 312 311 311 308 303 300 298 294 290 289 289 288 284 280 280 280 278 278 276 276 276 276 276 276 275
330 329 326 320 310 301 302 305 307 309 307 305 305 304 308 308 304 302 300 301 305 311 314 311 312 316 315 312 307 305 302 297 294 293 294 292 289 286 287 287 283 281 280 277 274 274 274 273 271 272 271 271
336 335 334 331 325 314 308 308 307 305 303 303 306 307 306 304 303 304 305 307 307 308 307 304 307 310 309 307 303 299 296 292 288 287 288 290 289 284 280 280 279 277 276 273 268 270 275 276 273 270 265 263
345 341 336 334 334 333 327 319 310 304 304 305 305 306 305 303 304 307 309 311 310 307 303 300 302 303 302 301 299 297 292 286 283 281 281 283 284 282 276 271 271 268 266 265 266 271 267 268 282 276 262 254
343 339 336 333 331 331 329 325 319 313 313 311 308 305 304 305 305 306 308 310 310 308 304 301 299 296 295 297 296 293 289 284 280 279 277 277 278 277 271 264 264 262 259 259 257 259 255 257 276 273 260 252
343 340 336 332 329 328 325 323 321 318 315 313 310 309 308 307 307 306 306 305 305 304 301 298 296 293 290 293 294 290 286 283 281 279 276 275 275 274 270 264 262 259 257 258 254 246 243 255 248 246 291 313
341 337 332 328 325 323 321 318 315 313 312 311 309 307 305 304 304 303 301 301 300 298 297 295 295 297 295 293 293 292 292 292 289 284 279 277 276 275 271 267 263 259 257 258 260 256 249 247 250 267 320 346
334 331 328 325 320 315 312 310 309 309 309 309 308 305 304 304 303 302 300 300 299 297 298 298 297 299 298 294 292 291 292 295 297 295 288 281 276 274 271 265 259 256 256 257 260 262 257 252 254 260 273 252